Location: Newark
(41.7539°N, 8.9378°E)
Time: 11:29:18
(UTC+00:00)

Hubble Space Telescope - Visible Passes

Search period start: 07 April 2020 00:00
Search period end: 17 April 2020 00:00
Orbit: 536 x 540 km, 28.5° (Epoch: 07 April)

Date Brightness Start Highest point End Pass type
(mag) Time Alt. Az. Time Alt. Az. Time Alt. Az.
07 Apr 3.1 19:20:15 10° S 19:20:23 10° S 19:20:23 10° S visible
08 Apr 3.0 19:08:44 10° S 19:10:01 11° S 19:10:33 11° SSE visible
09 Apr 2.9 18:57:37 10° SSW 18:59:13 12° S 19:00:38 10° SSE visible
10 Apr 3.0 18:46:38 10° SSW 18:48:25 12° S 18:50:11 10° SSE visible
11 Apr 3.0 18:35:46 10° SSW 18:37:37 13° S 18:39:28 10° SSE visible
